[[{"header":{"parameterUnit":"m.s-1","parameterCategory":1,"la1":30.2991,"la2":30.254,"lo1":-89.0895,"lo2":-89.0444,"dy":0.0017,"dx":0.0017,"nx":28,"ny":28,"refTime":"2024-10-02T03:00:00:Z","depth":0,"parameterNumber":2,"parameterNumberName":"U-component_of_WINDS"},"data":[0,0,0,0,0,0,0,0,0,0,0,0,0,0,0,0,0,0,0,0,0,0,0,0,0,0,0,0,0,0,0,0,0,0,0,0,0,0,0,0,0,0,0,0,0,0,0,0,0,0,0,0,0,0,0,0,0,0,-1.4686,-1.4685,0,-1.4676,-1.4675,-1.4675,-1.4595,-1.4593,-1.4591,-1.4589,-1.4582,-1.4583,-1.4585,0,0,0,0,0,0,0,0,0,0,0,0,0,-1.4637,-1.4638,-1.4686,-1.4685,-1.4685,-1.4676,-1.4675,-1.4675,-1.4595,-1.4593,-1.459,-1.4588,-1.4581,-1.4583,-1.4585,0,0,0,0,0,0,0,0,0,0,0,0,0,-1.4646,-1.4639,-1.4686,-1.4644,-1.464,-1.4676,-1.4675,-1.4675,-1.4596,-1.4593,-1.459,-1.4587,-1.4581,-1.4583,-1.4585,-1.4661,0,0,-1.4593,-1.4594,0,0,0,0,0,0,0,0,-1.4646,-1.4648,-1.465,-1.4647,-1.4643,-1.4633,-1.4656,-1.4671,-1.4596,-1.4613,-1.4589,-1.4585,-1.4602,-1.4602,-1.4607,-1.4661,-1.466,-1.4593,-1.4595,-1.4596,-1.4597,0,0,0,0,0,0,0,-1.4645,-1.4648,-1.4682,-1.465,-1.4646,-1.4626,-1.4624,-1.4658,-1.4624,-1.4611,-1.4605,-1.4605,-1.4599,-1.4605,-1.4606,-1.466,-1.4593,-1.4596,-1.4597,-1.4598,-1.4776,-1.4779,0,0,0,0,0,0,-1.465,-1.4648,-1.4682,-1.4681,-1.4637,-1.463,-1.4627,-1.4639,-1.4623,-1.4618,-1.4607,-1.4601,-1.4602,-1.4603,-1.4606,-1.4694,-1.4596,-1.4598,-1.46,-1.4773,-1.4777,-1.478,0,0,0,0,0,0,-1.4649,-1.4654,-1.4682,-1.4663,-1.4665,-1.4634,-1.4648,-1.4641,-1.4646,-1.4621,-1.4615,-1.462,-1.46,-1.4602,-1.4648,-1.4692,-1.4599,-1.4602,-1.4769,-1.4774,-1.4778,-1.487,0,0,0,0,0,0,-1.4648,-1.4654,-1.4682,-1.4664,-1.4666,-1.4725,-1.465,-1.4643,-1.4651,-1.4642,-1.4631,-1.4626,-1.4597,-1.4644,-1.465,-1.4694,-1.4604,-1.4765,-1.4771,-1.4777,-1.4863,-1.4878,-1.489,0,0,0,0,0,-1.4647,-1.4709,-1.4684,-1.4688,-1.4701,-1.4727,-1.4729,-1.4694,-1.4655,-1.4683,-1.4666,-1.4626,-1.4686,-1.465,-1.4656,-1.4701,-1.4762,-1.4769,-1.4776,-1.4857,-1.4875,-1.489,0,0,0,0,0,0,-1.4734,-1.4706,-1.4678,-1.4736,-1.4734,-1.4713,-1.4748,-1.4714,-1.4724,-1.4716,-1.4673,-1.4671,-1.4724,-1.4716,-1.4677,-1.4773,-1.4717,-1.4726,-1.4777,-1.4793,-1.4806,-1.4808,-1.4606,0,0,0,0,0,-1.476,-1.4783,-1.4757,-1.4811,-1.4812,-1.478,-1.479,-1.4764,-1.4761,-1.476,-1.4747,-1.4746,-1.4765,-1.4778,-1.4794,-1.4861,-1.4858,-1.4895,-1.4908,-1.492,-1.4929,-1.4964,-1.4981,-1.4804,-1.4804,-1.4804,0,0,-1.4815,-1.4802,-1.4819,-1.4829,-1.4824,-1.485,-1.478,-1.481,-1.4829,-1.4765,-1.4807,-1.4797,-1.4794,-1.4851,-1.4875,-1.4846,-1.4976,-1.4929,-1.4938,-1.4941,-1.4973,-1.499,-1.5005,-1.4809,-1.4808,-1.4807,0,0,-1.4927,-1.4919,-1.4963,-1.496,-1.4953,-1.4932,-1.4943,-1.4926,-1.4917,-1.4958,-1.4911,-1.4932,-1.4965,-1.4965,-1.4969,-1.508,-1.5044,-1.5086,-1.5157,-1.5192,-1.5206,-1.5218,-1.5259,-1.5274,-1.5094,-1.5094,-1.5095,0,-1.4996,-1.5032,-1.4991,-1.5024,-1.503,-1.4971,-1.5016,-1.5014,-1.5014,-1.502,-1.4987,-1.5027,-1.502,-1.5077,-1.5104,-1.5108,-1.512,-1.5088,-1.5207,-1.5219,-1.523,-1.5268,-1.5284,-1.51,-1.5099,-1.5099,-1.5098,0,-1.5117,-1.5143,-1.5179,-1.5179,-1.5189,-1.5228,-1.5193,-1.5208,-1.518,-1.5162,-1.5205,-1.5195,-1.5207,-1.5218,-1.5192,-1.5271,-1.5253,-1.5215,-1.5157,-1.5253,-1.5288,-1.5303,-1.5107,-1.5105,-1.5104,-1.5103,0,0,-1.5287,-1.5262,-1.5277,-1.5276,-1.5264,-1.5283,-1.5319,-1.533,-1.5344,-1.5345,-1.5376,-1.5404,-1.5368,-1.5372,-1.5345,-1.5375,-1.5465,-1.5333,-1.5332,-1.5359,-1.5553,-1.5584,-1.5602,-1.544,-1.5442,-1.5445,-1.5554,0,-1.5396,-1.5456,-1.542,-1.5485,-1.5509,-1.5452,-1.5484,-1.548,-1.5464,-1.5482,-1.5464,-1.5485,-1.5435,-1.5438,-1.5465,-1.5449,-1.5504,-1.544,-1.5469,-1.5471,-1.5474,-1.562,-1.5653,-1.5757,-1.5567,-1.557,-1.5571,0,-1.5532,-1.5538,-1.5606,-1.5589,-1.5597,-1.5626,-1.5633,-1.5651,-1.5646,-1.5631,-1.5636,-1.5601,-1.5636,-1.5577,-1.5626,-1.5583,-1.5592,-1.5586,-1.5589,-1.5592,-1.5529,-1.5629,-1.5789,-1.5805,-1.5592,-1.5591,-1.5589,0,-1.5652,-1.5676,-1.572,-1.5721,-1.5701,-1.5723,-1.5716,-1.5708,-1.5717,-1.5723,-1.5728,-1.5739,-1.5746,-1.5755,-1.5723,-1.5684,-1.5776,-1.5715,-1.5767,-1.5768,-1.5791,-1.5791,-1.5957,-1.5794,-1.5794,-1.5793,-1.5793,0,-1.5779,-1.5823,-1.5773,-1.5801,-1.5848,-1.5806,-1.5855,-1.5842,-1.5834,-1.5859,-1.581,-1.5834,-1.579,-1.581,-1.5785,-1.5829,-1.5832,-1.5823,-1.5816,-1.5828,-1.583,-1.5836,-1.5829,-1.5798,-1.5797,-1.5796,-1.5795,0,-1.5921,-1.5889,-1.5934,-1.5911,-1.5906,-1.5942,-1.5923,-1.5948,-1.5927,-1.5959,-1.5964,-1.5932,-1.5953,-1.5921,-1.5939,-1.5922,-1.5984,-1.5965,-1.5986,-1.5981,-1.6036,-1.6032,-1.6213,-1.6235,-1.6057,-1.6058,-1.606,0,-1.6006,-1.6038,-1.6018,-1.603,-1.6026,-1.6046,-1.6054,-1.6013,-1.6024,-1.602,-1.6045,-1.6061,-1.6072,-1.6108,-1.6088,-1.6101,-1.6083,-1.6146,-1.6085,-1.6096,-1.6086,-1.6086,-1.6089,-1.6159,-1.6161,-1.6163,-1.6164,0,-1.6159,-1.6141,-1.6155,-1.6163,-1.6174,-1.6178,-1.6179,-1.6192,-1.6148,-1.6163,-1.6183,-1.6192,-1.6208,-1.6226,-1.6233,-1.6227,-1.619,-1.6183,-1.6196,-1.621,-1.6222,-1.6218,-1.6022,-1.618,-1.6178,-1.6177,-1.6176,-1.6176,-1.6276,-1.6302,-1.6292,-1.6309,-1.6305,-1.6307,-1.6329,-1.631,-1.6325,-1.6335,-1.631,-1.6336,-1.6329,-1.6335,-1.6333,-1.6353,-1.6326,-1.6345,-1.635,-1.6356,-1.6365,-1.6216,-1.6354,-1.6354,-1.6353,-1.6353,-1.6353,0,-1.6429,-1.6419,-1.6434,-1.6436,-1.645,-1.641,-1.6409,-1.6423,-1.6446,-1.6442,-1.6454,-1.6477,-1.6493,-1.6473,-1.6485,-1.6506,-1.6489,-1.651,-1.651,-1.6509,-1.6388,-1.6376,-1.6524,-1.6524,-1.6524,-1.6524,-1.6524,-1.6524,-1.651,-1.6553,-1.6533,-1.6574,-1.6563,-1.6588,-1.659,-1.6592,-1.6589,-1.6616,-1.6629,-1.6615,-1.6604,-1.6616,-1.6629,-1.6622,-1.663,-1.6659,-1.6647,-1.6534,-1.6518,-1.6502,-1.6491,-1.666,-1.6661,-1.6767,-1.6768,-1.6769]},{"header":{"parameterUnit":"m.s-1","parameterCategory":1,"la1":30.2991,"la2":30.254,"lo1":-89.0895,"lo2":-89.0444,"dy":0.0017,"dx":0.0017,"nx":28,"ny":28,"refTime":"2024-10-02T03:00:00:Z","depth":0,"parameterNumber":3,"parameterNumberName":"V-component_of_WINDS"},"data":[0,0,0,0,0,0,0,0,0,0,0,0,0,0,0,0,0,0,0,0,0,0,0,0,0,0,0,0,0,0,0,0,0,0,0,0,0,0,0,0,0,0,0,0,0,0,0,0,0,0,0,0,0,0,0,0,0,0,-3.9501,-3.9502,0,-3.9546,-3.9546,-3.9547,-3.9478,-3.9476,-3.9473,-3.9471,-3.9513,-3.9517,-3.952,0,0,0,0,0,0,0,0,0,0,0,0,0,-3.9353,-3.9356,-3.9501,-3.9502,-3.9502,-3.9546,-3.9546,-3.9547,-3.9479,-3.9476,-3.9473,-3.947,-3.9512,-3.9516,-3.952,0,0,0,0,0,0,0,0,0,0,0,0,0,-3.9409,-3.9357,-3.9501,-3.9473,-3.9471,-3.9545,-3.9546,-3.9547,-3.9479,-3.9476,-3.9472,-3.9469,-3.9511,-3.9516,-3.9521,-3.9623,0,0,-3.9536,-3.9538,0,0,0,0,0,0,0,0,-3.9406,-3.9415,-3.9477,-3.9476,-3.9473,-3.9503,-3.9509,-3.9572,-3.948,-3.9476,-3.9471,-3.9467,-3.9512,-3.9517,-3.9533,-3.9625,-3.9626,-3.9536,-3.9539,-3.9542,-3.9543,0,0,0,0,0,0,0,-3.9402,-3.9412,-3.9519,-3.9478,-3.9476,-3.9457,-3.9462,-3.9521,-3.9514,-3.9476,-3.9471,-3.9478,-3.9511,-3.9529,-3.9534,-3.9627,-3.9536,-3.9541,-3.9544,-3.9546,-3.9803,-3.9807,0,0,0,0,0,0,-3.9402,-3.9409,-3.9517,-3.952,-3.943,-3.9463,-3.9468,-3.9497,-3.9513,-3.9512,-3.9481,-3.9474,-3.9522,-3.9528,-3.9535,-3.9655,-3.9542,-3.9546,-3.9549,-3.9799,-3.9804,-3.9808,0,0,0,0,0,0,-3.9399,-3.9412,-3.9515,-3.9463,-3.9475,-3.9469,-3.9503,-3.95,-3.9517,-3.9516,-3.9514,-3.9501,-3.9519,-3.9528,-3.9601,-3.9655,-3.9548,-3.9553,-3.9795,-3.9801,-3.9806,-3.9896,0,0,0,0,0,0,-3.9395,-3.9412,-3.9452,-3.9465,-3.9478,-3.9583,-3.9506,-3.9503,-3.9527,-3.9519,-3.9534,-3.9533,-3.9517,-3.9594,-3.9606,-3.966,-3.9557,-3.979,-3.9797,-3.9804,-3.9888,-3.9904,-3.9918,0,0,0,0,0,-3.939,-3.9474,-3.9454,-3.9467,-3.9528,-3.9586,-3.9593,-3.9574,-3.9531,-3.957,-3.9569,-3.9533,-3.9647,-3.9602,-3.9615,-3.9672,-3.9786,-3.9795,-3.9804,-3.9881,-3.9901,-3.9917,0,0,0,0,0,0,-3.9466,-3.9476,-3.9453,-3.9544,-3.9565,-3.9574,-3.9623,-3.9595,-3.9627,-3.9619,-3.9592,-3.9596,-3.9675,-3.968,-3.963,-3.977,-3.9709,-3.9721,-3.9764,-3.9783,-3.9797,-3.9794,-3.9561,0,0,0,0,0,-3.9494,-3.9542,-3.9547,-3.9627,-3.9638,-3.9629,-3.9654,-3.9637,-3.9657,-3.9665,-3.9669,-3.9689,-3.9729,-3.9756,-3.9793,-3.9888,-3.989,-3.9933,-3.9948,-3.996,-3.997,-4.002,-4.0039,-3.9836,-3.9836,-3.9836,0,0,-3.9551,-3.9562,-3.9594,-3.9642,-3.9656,-3.9705,-3.9637,-3.9691,-3.9727,-3.9672,-3.9743,-3.9746,-3.9766,-3.9851,-3.9889,-3.9858,-4.0027,-3.9971,-3.9981,-3.9985,-4.0031,-4.0051,-4.0068,-3.9842,-3.9841,-3.984,0,0,-3.9681,-3.9694,-3.9762,-3.9778,-3.98,-3.9793,-3.981,-3.9823,-3.9824,-3.9894,-3.9854,-3.9895,-3.9965,-3.9981,-3.9998,-4.0133,-4.01,-4.0145,-4.0222,-4.0272,-4.0288,-4.0302,-4.0349,-4.0367,-4.0155,-4.0156,-4.0156,0,-3.9749,-3.9822,-3.98,-3.9858,-3.988,-3.9834,-3.9902,-3.9917,-3.995,-3.9966,-3.9931,-4.0018,-4.0028,-4.0116,-4.0148,-4.0164,-4.0181,-4.0143,-4.0287,-4.0301,-4.0314,-4.0359,-4.0377,-4.0161,-4.016,-4.016,-4.0159,0,-3.9904,-3.9955,-4.0007,-4.0042,-4.0069,-4.0132,-4.0118,-4.0148,-4.0129,-4.0126,-4.0197,-4.0207,-4.0245,-4.0264,-4.0246,-4.0349,-4.033,-4.0292,-4.023,-4.0339,-4.0381,-4.0398,-4.0169,-4.0167,-4.0165,-4.0164,0,0,-4.0084,-4.0105,-4.0124,-4.0139,-4.016,-4.0198,-4.0258,-4.0296,-4.0322,-4.0346,-4.0395,-4.0455,-4.042,-4.0439,-4.0422,-4.0465,-4.057,-4.0421,-4.0421,-4.0448,-4.0684,-4.0713,-4.0733,-4.0548,-4.0551,-4.0554,-4.0682,0,-4.0212,-4.0317,-4.0299,-4.04,-4.0446,-4.0403,-4.0454,-4.0472,-4.047,-4.0508,-4.0504,-4.0548,-4.0498,-4.051,-4.055,-4.0549,-4.0617,-4.0539,-4.0592,-4.0595,-4.0589,-4.0755,-4.0786,-4.0907,-4.0699,-4.0701,-4.0703,0,-4.0377,-4.0408,-4.0514,-4.0527,-4.0546,-4.0593,-4.0626,-4.0663,-4.0682,-4.0677,-4.0699,-4.0673,-4.0731,-4.0668,-4.0747,-4.0694,-4.0714,-4.0717,-4.0721,-4.0725,-4.0656,-4.0764,-4.0945,-4.0963,-4.0729,-4.0727,-4.0725,0,-4.0497,-4.0565,-4.0637,-4.0651,-4.0668,-4.0702,-4.0711,-4.0726,-4.075,-4.0778,-4.0793,-4.0828,-4.0847,-4.0873,-4.0857,-4.0813,-4.0938,-4.0874,-4.0935,-4.0936,-4.0964,-4.0962,-4.115,-4.0977,-4.0976,-4.0976,-4.0976,0,-4.0643,-4.0709,-4.0692,-4.0736,-4.0809,-4.0786,-4.0858,-4.0861,-4.0875,-4.0918,-4.0882,-4.0923,-4.0898,-4.0937,-4.0924,-4.0991,-4.0999,-4.0996,-4.0992,-4.1,-4.1001,-4.1013,-4.1005,-4.0981,-4.098,-4.0979,-4.0978,0,-4.079,-4.0781,-4.0856,-4.0866,-4.087,-4.0924,-4.0931,-4.0972,-4.0967,-4.1022,-4.1033,-4.1025,-4.1069,-4.1055,-4.1101,-4.1092,-4.1177,-4.1162,-4.1172,-4.1168,-4.123,-4.1224,-4.1433,-4.1459,-4.1269,-4.127,-4.1272,0,-4.0884,-4.0934,-4.095,-4.0977,-4.0988,-4.1032,-4.1056,-4.1036,-4.1062,-4.1087,-4.1124,-4.1165,-4.1196,-4.1267,-4.1265,-4.13,-4.1285,-4.1356,-4.129,-4.1296,-4.1286,-4.1284,-4.1288,-4.1369,-4.1371,-4.1373,-4.1375,0,-4.1051,-4.1044,-4.1082,-4.1118,-4.1148,-4.1175,-4.1198,-4.1222,-4.1203,-4.1234,-4.1279,-4.1303,-4.1351,-4.1391,-4.1423,-4.143,-4.1399,-4.1395,-4.1411,-4.142,-4.1423,-4.1422,-4.1208,-4.1391,-4.1389,-4.1388,-4.1387,-4.1386,-4.1174,-4.1217,-4.1235,-4.1277,-4.1293,-4.1316,-4.1354,-4.1354,-4.1392,-4.143,-4.1415,-4.1466,-4.1482,-4.1521,-4.1533,-4.1571,-4.1544,-4.1567,-4.1573,-4.1579,-4.1587,-4.1417,-4.1577,-4.1576,-4.1576,-4.1575,-4.1575,0,-4.134,-4.1349,-4.1389,-4.1423,-4.1457,-4.1426,-4.145,-4.1479,-4.1525,-4.1543,-4.1575,-4.1626,-4.1664,-4.1665,-4.1701,-4.1731,-4.1718,-4.1742,-4.1739,-4.1741,-4.1609,-4.1592,-4.1752,-4.1752,-4.1752,-4.1752,-4.1752,-4.1752,-4.143,-4.1501,-4.1496,-4.1573,-4.1581,-4.1632,-4.1648,-4.1668,-4.1682,-4.1741,-4.1774,-4.1774,-4.1785,-4.1821,-4.1855,-4.1853,-4.1868,-4.1897,-4.1891,-4.1768,-4.175,-4.1734,-4.1717,-4.1901,-4.1901,-4.2019,-4.202,-4.2021]}]]